User: anonymous   Login
Location: Oronoko Observatory
(41.9167°N, 86.3833°W)
Time: 11:20:44
(UTC-04:00)
Language:

PAYLOAD A - Orbit

View from above orbital plane
View from above orbital plane
View from above satellite
View from above satellite

Ground track
Ground track

The orbit data is extracted from the following two-line orbital elements,

1 27840U 03031A   17086.94412618 -.00000015 +00000-0 +88102-5 0  9996
2 27840 098.2037 087.9566 0098372 004.7196 355.4897 14.38877283721539
Epoch (UTC): 27 March 2017 22:39:32
Eccentricity: 0.0098372
inclination: 98.2037°
perigee height: 692 km
apogee height: 832 km
right ascension of ascending node: 87.9566°
argument of perigee: 4.7196°
revolutions per day: 14.38877283
mean anomaly at epoch: 355.4897°
orbit number at epoch: 72153

The dashed part of the orbit path shows where the satellite is in the earth's shadow,  

DLR